Location: Goheenville
(40.9070°N, 79.3720°W)
Time: 05:24:01
(UTC-04:00)

Cosmos 1727 Rocket - Visible Passes

Search period start: 29 August 2015 00:00
Search period end: 08 September 2015 00:00
Orbit: 961 x 996 km, 82.9° (Epoch: 29 August)

Date Brightness Start Highest point End Pass type
(mag) Time Alt. Az. Time Alt. Az. Time Alt. Az.
29 Aug 6.0 01:15:27 20° NE 01:15:27 20° NE 01:18:03 10° NNE visible
29 Aug 5.0 03:00:12 37° NNW 03:00:12 37° NNW 03:04:18 10° N visible
30 Aug 5.5 01:41:49 30° NE 01:41:49 30° NE 01:45:09 10° NNE visible
30 Aug 5.5 03:26:34 24° NW 03:26:34 24° NW 03:30:07 10° NNW visible
31 Aug 5.3 02:08:11 37° NNE 02:08:11 37° NNE 02:11:47 10° N visible
31 Aug 6.0 03:52:55 14° NW 03:52:55 14° NW 03:55:12 10° NNW visible
01 Sep 6.2 00:49:48 16° NE 00:49:48 16° NE 00:51:34 10° NE visible
01 Sep 5.3 02:34:32 33° NNW 02:34:32 33° NNW 02:38:04 10° N visible
02 Sep 5.8 01:16:08 24° NE 01:16:08 24° NE 01:18:47 10° NNE visible
02 Sep 5.6 03:00:52 24° NW 03:00:52 24° NW 03:03:58 10° NNW visible
03 Sep 5.6 01:42:28 30° NNE 01:42:28 30° NNE 01:45:29 10° N visible
03 Sep 6.0 03:27:12 15° NW 03:27:12 15° NW 03:29:15 10° NNW visible
04 Sep 6.3 00:24:03 13° NE 00:24:03 13° NE 00:25:03 10° NE visible
04 Sep 5.6 02:08:47 29° N 02:08:47 29° N 02:11:49 10° N visible
05 Sep 6.0 00:50:22 20° NE 00:50:22 20° NE 00:52:24 10° NNE visible
05 Sep 5.8 02:35:06 23° NNW 02:35:06 23° NNW 02:37:48 10° N visible
06 Sep 5.8 01:16:40 25° NNE 01:16:40 25° NNE 01:19:10 10° NNE visible
06 Sep 6.1 03:01:25 15° NW 03:01:25 15° NW 03:03:14 10° NNW visible
06 Sep 6.5 23:58:14 11° NE 23:58:14 11° NE 23:58:30 10° NE visible
07 Sep 5.8 01:42:58 26° N 01:42:58 26° N 01:45:34 10° N visible
